The Wizard Of Big Odds

Introduction

The Wizard Of Big Odds is a horse racing tipping service which claims to never shy away from a big price. They believe there is more value to be found in large odds and I was excited to get this review underway to see how this tipster would perform.

The service shows an impressive 35.73% profit since it started with Tipster Empire in June 2018 banking a cumulative profit of £4577 (to the date of this review).

Selections are sent via text and email daily at 11am. You can login via a link in the text to read their indepth write up as to why each selection has been made.

A 150 point bank was recommended which is £1500 to £10 bets. We will log results at our standard £100 per point below and keep you updated monthly on their progress.

Results

Week 1 and just the 1 winner which meant an 8 point loss. Still very early days so I was not too worried.

DateSelectionTimeCourseWin/EWOddsW/LTotal
01/08/20QULOOB2.25GoodwoodWin (1.5pt)13.00-£15.00-£15.00
01/08/20COSMIC PRINCESS3.15NewmarketWin (1pt)7.50-£10.00-£25.00
01/08/20MAKE HASTE SLOWLY4.25NewmarketWin (1pt)6.50-£10.00-£35.00
01/08/20CHARLEMAINE7.30ChepstowWin (0.5pt)13.00-£10.00-£45.00
02/08/20DON’T JOKE2.10LeicesterE/W (0.5pt)17.00-£10.00-£55.00
02/08/20MEPHISTO3.20SandownE/W (0.5pt)9.00£50.00-£5.00
03/08/20CAFÉ SYDNEY1.45HaydockWin (1.5pt)17.00-£15.00-£20.00
04/08/20FLOWER POWER 5.20CatterickE/W (0.5pt)19.00-£10.00-£30.00
04/08/20SOMEWHAT SISYPHEAN5.50CatterickWin (1pt)23.00-£10.00-£40.00
05/08/20ONE LAST HUG5.40AyrWin (1pt)6.50-£10.00-£50.00
06/08/20BILLY NO MATES 2.50RiponWin (2pts)7.00-£20.00-£70.00
07/08/20AUTHORIZO3.45CartmelWin (1pt)9.00-£10.00-£80.00

Week 2 and unfortunately for me it was a carbon copy of week 1. 1 winner which meant an 8 point loss. 16 points down for my 'The Wizard Of Big Odds' review overall.

DateSelectionTimeCourseWin/EWOddsW/LTotal
08/08/20FAST DEAL12.30HaydockE/W (1pt)19.00-£20.00-£100.00
08/08/20HOLY KINGDOM3.00AscotWin (1pt)7.50-£10.00-£110.00
08/08/20 DIOCLETIAN3.00AscotWin (1pt)N/R£0.00-£110.00
08/08/20JEREMIAH 3.35AscotWin (1pt)6.50-£10.00-£120.00
09/08/20ESCAPE THE CITY 4.30SalisburyWin (1pt)7.50-£10.00-£130.00
09/08/20FLOWER POWER5.20ThirskE/W (0.5pt)26.00-£10.00-£140.00
10/08/20NORTHERN BOUND3.45SouthwellWin (1pt)7.50-£10.00-£150.00
11/08/20SET IN STONE4.00PerthWin (0.5pt)8.00-£5.00-£155.00
11/08/20LOVELY SCHTUFF 7.40PerthWin (0.5pt)17.00-£5.00-£160.00
11/08/20ZHUKOVSKY 7.55LingfieldWin (0.5pt)15.00-£5.00-£165.00
12/08/20ARDIMENTO5.25KemptonWin (0.5pt)17.00-£5.00-£170.00
14/08/20MANY A STAR 2.20PontefractWin (1pt)7.00-£10.00-£180.00
14/08/20JOUSKA 2.50PontefractWin (0.5pt)11.00-£5.00-£185.00
15/08/20HISTORY WRITER3.35NewburyE/W (0.5pts)26.00-£10.00-£195.00
16/08/20MILLIE OF MAYO 1.05Market RasenWin (1pt)5.50£45.00-£150.00
16/08/20DIAMOND GAIT 1.40Market RasenWin (1pt)15.00-£10.00-£160.00

Another 15.5 points lost during week 3 meant I was now 31.5 points in the red.

DateSelectionTimeCourseWin/EWOddsW/LTotal
17/08/20STORM HOME4.10UttoxeterWin (0.5pt)12.00-£5.00-£165.00
17/08/20COLBY5.10UttoxeterWin (0.5pt)11.00-£5.00-£170.00
17/08/20MOMENT OF HOPE 7.30WindsorWin (0.5pt)8.50-£5.00-£175.00
18/08/20TELEGRAPH PLACE4.20FontwellWin (1pt)17.00-£10.00-£185.00
19/08/20HERE AND NOW 3.45YorkWin (1pt)13.00-£10.00-£195.00
19/08/20LESTER KRIS4.45StratfordWin (0.5pt)N/R£0.00-£195.00
19/08/20BAD COMPANY 6.00BathWin (0.5pt)17.00-£5.00-£200.00
19/08/20CLOG NA FOLA 7.30BathWin (0.5pt)6.00-£5.00-£205.00
20/08/20BHARANI STAR3.45YorkWin (1pt)17.00-£10.00-£215.00
20/08/20DIOCLETIAN5.25ChesterWin (1pt)13.00-£10.00-£225.00
21/08/20JOHAN4.50YorkWin (1pt)11.00-£10.00-£235.00
21/08/20INDIGO TIMES8.35WolverhamptonWin (1pt)8.00-£10.00-£245.00
21/08/20VERDANA BLUE3.40YorkWin (2pts)13.00-£20.00-£265.00
22/08/20DRUMCLIFF3.20UttoxeterWin (0.5pt)9.50-£5.00-£270.00
22/08/20SUCELLUS 5.00SandownWin (1pt)9.00-£10.00-£280.00
22/08/20SOCIETY LION 7.25ChelmsfordWin (1pt)4.33-£10.00-£290.00
23/08/20GOOD BIRTHDAY 2.30SandownWin (1pt)8.50-£10.00-£300.00
23/08/20GOLD ZABEEL2.55WolverhamptonWin (0.5pt)23.00-£5.00-£305.00
23/08/20CAFE SYDNEY5.10WolverhamptonE/W (0.5pts)12.00-£10.00-£315.00

A loss of 13.5 points meant I was 45 points down and nearly half of my trading bank was gone. I was hoping for a quick turnaround in fortunes or this review could be forced into an early end. 

DateSelectionTimeCourseWin/EWOddsW/LTotal
24/08/20WHERE’S MICK 2.10AyrWin (1pt)19.00-£10.00-£325.00
26/08/20GRANNY ROZ 3.00MussleburghE/W (0.5pts)23.00-£10.00-£335.00
26/08/20GRACEFUL LADY5.30LingfieldWin (1pt)6.50-£10.00-£345.00
27/08/20AMAYSMONT2.30BeverleyWin (0.5pt)7.50-£5.00-£350.00
27/08/20SIBERIAN NIGHT 4.55LingfieldWin (1pt)19.00-£10.00-£360.00
27/08/20WAND 6.30LingfieldWin (1pt)11.00-£10.00-£370.00
28/08/20I’M AVAILABLE1.20GoodwoodWin (1pt)8.00-£10.00-£380.00
28/08/20INDIGO TIMES3.00GoodwoodE/W (1pts)N/A£0.00-£380.00
28/08/20MISS CHESS3.05NewmarketWin (0.5pt)8.00-£5.00-£385.00
29/08/20THANK YOU NEXT1.50GoodwoodWin (1.5pt)13.00-£15.00-£400.00
29/08/20SHABAABY 2.05NewmarketWin (0.5pt)7.50-£5.00-£405.00
29/08/20ALEMARATALYOUM 2.25GoodwoodWin (1.5pt)6.00-£15.00-£420.00
29/08/20TABLE MOUNTAIN3.00GoodwoodWin (1pt)7.50-£10.00-£430.00
30/08/20CHAIRMANOFTHEBOARD2.25GoodwoodWin (1pt)4.50-£10.00-£440.00
30/08/20BALLYCRYSTAL COURT5.00PerthWin (1pt)10.00-£10.00-£450.00

Week 5 and a small loss of 1.5 points. This left me 46.5 points in the red overall.

DateSelectionTimeCourseWin/EWOddsW/LTotal
31/08/20VULCAN 5.50SandownWin (1pt)11.00-£10.00-£460.00
01/09/20LUCKY LUCKY MAN5.45HamiltonWin (1pt)5.00£40.00-£420.00
02/09/20MINELLA MOJO2.50UttoxeterE/W (0.5pts)17.00£15.00-£405.00
02/09/20INDIGO TIMES 8.45WolverhamptonE/W (1pts)9.00£10.00-£395.00
03/09/20CAWTHORNE 4.00SouthwellWin (0.5pts)13.00-£5.00-£400.00
03/09/20EAGLESGLEN 7.20ChelmsfordE/W (0.5pts)21.00-£10.00-£410.00
04/09/20DASH OF SPICE3.40AscotWin (1pt)11.00-£10.00-£420.00
04/09/20LUNAR JET 5.25HaydockWin (1pt)6.50-£10.00-£430.00
05/09/20KINROSS1.45HaydockWin (1.5pts)10.00-£15.00-£445.00
05/09/20DIOCLETIAN 2.50HaydockWin (1pt)17.00-£10.00-£455.00
05/09/20COCONUT 3.05AscotWin (1pt)17.00-£10.00-£465.00

Another loss of 15.5 points during week 6 meant I was now in the red by 62 points overall.

DateSelectionTimeCourseWin/EWOddsW/LTotal
07/09/20SEA FOX1.15 LeicesterWin (1pt)5.50-£10.00-£475.00
07/09/20SIR I’LL CHANCE IT6.30WindsorWin (1pt)11.00-£10.00-£485.00
07/09/20SING OUT LOUD6.30WindsorE/W (0.25pts)26.00-£5.00-£490.00
08/09/20STORM HOME 2.40Newton AbbottWin (1pt)11.00-£10.00-£500.00
08/09/20INSPIREUS 3.50Newton AbbottWin (1pt)23.00-£10.00-£510.00
08/09/20SPANTIK5.50NewcastleWin (1pt)6.50-£10.00-£520.00
09/09/20 IMPATIENT2.25KemptonWin (1pt)4.50-£10.00-£530.00
09/09/20RISE HALL 3.45DoncasterWin (0.5pts)21.00-£5.00-£535.00
09/09/20AMATEUR4.10UttoxeterWin (1pt)13.00-£10.00-£545.00
09/09/20CONQUERING HERO4.40KemptonWin (0.5pts)17.00-£5.00-£550.00
10/09/20SIR CHARLES PUNCH3.00HaydockWin (2pt)9.00-£20.00-£570.00
11/09/20THANK YOU NEXT3.45DoncasterWin (1pt)23.00-£10.00-£580.00
11/09/20WHERE’S TOM7.05SalisburyWin (1pt)19.00-£10.00-£590.00
12/09/20GINGER JAM2.25DoncasterE/W (0.5pts)29.00-£10.00-£600.00
12/09/20DAPPER MAN4.35MussleburghWin (2pt)4.33-£20.00-£620.00

Just the 1 winner during week 7 meant another loss of 4 points for an overall total loss of 66 points.

DateSelectionTimeCourseWin/EWOddsW/LTotal
13/09/20MR LUPTON 2.00CurraghWin (1pt)8.00£70.00-£550.00
13/09/20CANAL ROCKS3.15BathWin (1pt)17.00-£10.00-£560.00
13/09/20TRUMPET MAN4.05WolverhamptonWin (1pt)9.00-£10.00-£570.00
13/09/20LAWS OF INDICES4.10CurraghE/W (0.5pts)23.00-£10.00-£580.00
15/09/20ATAILOF TWO CITIES 4.50RedcarWin (1pt)17.00-£10.00-£590.00
15/09/20SCARBOROUGH CASTLE7.10KemptonWin (0.5pts)13.00-£5.00-£595.00
16/09/20PUSH THE TEMPO 5.10KelsoWin (0.5pts)15.00-£5.00-£600.00
16/09/20GARDE FORESTIER6.10KelsoWin (0.5pts)17.00-£5.00-£605.00
17/09/20RED TORNADO2.50PontefractWin (1pt)11.00-£10.00-£615.00
17/09/20IRV4.20PontefractWin (1pt)23.00-£10.00-£625.00
18/09/20DASH OF SPICE2.30NewburyWin (1pt)6.50-£10.00-£635.00
18/09/20UNDER FOX 2.55CatterickWin (0.5pts)12.00-£5.00-£640.00
19/09/20GRACEFUL LADY 3.50NewmarketE/W (1pt)17.00-£20.00-£660.00

Another 2 point lost during week 8 but it could have been a lot worse. I had a nice winner at odds of 11.00 on the last day to almost save the week. I was now, however, 68 points in the red for my review overall.

DateSelectionTimeCourseWin/EWOddsW/LTotal
21/09/20LESTER KRIS1.45WarwickWin (1pt)19.00-£10.00-£670.00
21/09/20GENERATION GAP3.15WarwickWin (1pt)N/R£0.00-£670.00
21/09/20DORADO DOLLAR4.20WarwickWin (1pt)17.00-£10.00-£680.00
22/09/20SCOTSBROOK NIGHT2.55WarwickWin (1pt)12.00-£10.00-£690.00
23/09/20THUNDERING BLUE2.55GoodwoodWin (1pt)15.00-£10.00-£700.00
23/09/20RECTORY ROAD 4.05GoodwoodE/W (1pt)19.00-£20.00-£720.00
24/09/20ROMEO BROWN 4.35PerthE/W (1pt)29.00-£20.00-£740.00
25/09/20SIR CHARLES PUNCH 2.15HaydockWin (2pts)9.00-£20.00-£760.00
26/09/20PUNCHBOWL FLYER 3.10HaydockWin (1pt)8.50-£10.00-£770.00
26/09/20MR CARPENTER4.15HaydockWin (1pt)5.50-£10.00-£780.00
26/09/20CAWTHORNE 3.20Market RasenWin (1pt)11.00£100.00-£680.00

Week 9 and another 3 points down. That has left me 71 points in the red with just 3 weeks to turn things around.

DateSelectionTimeCourseWin/EWOddsW/LTotal
27/09/20WAR GLORY 3.35ChesterWin (1pt)9.00-£10.00-£690.00
28/09/20TEST VALLEY4.20BathE/W (0.5pts)34.00-£10.00-£700.00
29/09/20FLORENZA 2.05AyrWin (1pt)9.00-£10.00-£710.00
30/09/20PUNCHBOWL FLYER2.55NottinghamWin (1pt)10.00-£10.00-£720.00
30/09/20GLOBAL STYLE5.25KemptonWin (1pt)8.50-£10.00-£730.00
30/09/20FELDSPAR 8.30KemptonWin (1pt)15.00-£10.00-£740.00
01/10/20OVERWORKDUNDERPAID2.08Ffos LasWin (1pt)17.00-£10.00-£750.00
01/10/20UNO MAS 4.30Ffos LasWin (0.5pt)11.00£50.00-£700.00
01/10/20THIRSTY FARMER5.35Ffos LasWin (1pt)23.00-£10.00-£710.00
02/10/20METHAG1.15HexhamE/W (0.5pts)17.00£15.00-£695.00
02/10/20GROVE FERRY1.55AscotWin (0.5pt)5.00-£5.00-£700.00
03/10/20BRUNCH 2.50RedcarWin (0.5pt)9.50-£5.00-£705.00
03/10/20URSULINA 3.20NewmarketWin (0.5pt)23.00-£5.00-£710.00

Another 14 points lost during week 10. With just 2 weeks to go and an overall loss of 85 points for the review, things were looking pretty desperate.

DateSelectionTimeCourseWin/EWOddsW/LTotal
04/10/20GETAWAY GERRY1.25KelsoE/W (0.5pts)21.00-£10.00-£720.00
04/10/20HALDON HILL 3.46UttoxeterWin (1pt)10.00-£10.00-£730.00
05/10/20JAMES PARK WOODS3.00 PontefractWin (0.5pt)8.50-£5.00-£735.00
05/10/20KYLIE RULES3.30 PontefractWin (0.5pt)23.00-£5.00-£740.00
05/10/20ROYAL ASTRONOMER6.30WolverhamptonWin (0.5pt)15.00-£5.00-£745.00
06/10/20VITELLIUS3.50LeicesterWin (0.5pt)21.00-£5.00-£750.00
06/10/20AMADEUS GREY8.20SouthwellWin (0.5pt)19.00-£5.00-£755.00
07/10/20RELENTLESS DREAMER3.20LudlowWin (1pt)9.00-£10.00-£765.00
08/10/20SHANROE TIC TEC3.30ExeterWin (2pts)11.00-£20.00-£785.00
08/10/20BYRON HILL8.30ChelmsfordWin (0.5pt)10.00-£5.00-£790.00
10/10/20ANTEROS 1.55HexhamWin (1pt)17.00-£10.00-£800.00
10/10/20DIDTHEYLEAVEUOUTTO 2.12ChepstowWin (2pts)7.50-£20.00-£820.00
10/10/20STEELY ADDITION 2.47ChepstowWin (1pt)15.00-£10.00-£830.00
10/10/20COLTRANE 3.35NewmarketWin (1pt)10.00-£10.00-£840.00
10/10/20KALONDRA3.57ChepstowWin (0.5pt)N/R£0.00-£840.00
10/10/20LORD HALIFAX8.30ChelmsfordE/W (0.5pts)13.00-£10.00-£850.00

Week 11 gave me a couple of winners and a profit of 5 points. Too little too late for this review with just one week to go.

DateSelectionTimeCourseWin/EWOddsW/LTotal
11/10/20AMBION HILL4.15Newton AbbotWin (1pt)15.00-£10.00-£860.00
11/10/20POPPLE3.40WindsorWin (0.5pt)11.00-£5.00-£865.00
13/10/20LADY SALLY3.33HerefordWin (1pt)21.00-£10.00-£875.00
14/10/20CHARLEMAINE1.40BathWin (0.5pt)26.00-£5.00-£880.00
14/10/20LOVERBOY4.45WetherbyWin (0.5pt)8.00-£5.00-£885.00
14/10/20ZIZANEUR 5.15WetherbyWin (1pt)7.00-£10.00-£895.00
14/10/20SHEEPSCAR LAD 5.20NottinghamWin (1pt)10.00-£10.00-£905.00
14/10/20VITESSE DU DON 8.00KemptonWin (1pt)9.00-£10.00-£915.00
14/10/20TREPIDATION 8.00KemptonWin (0.5pt)11.00-£5.00-£920.00
15/10/20HATTAB5.05WincantonE/W (1pt)15.00-£20.00-£940.00
16/10/20ECLAIR DES SABLONS  E/W (1pt)21.00-£20.00-£960.00
17/10/20HEY BUD 2.53StratfordWin (1.5pts)12.00-£15.00-£975.00
17/10/20DIAMOND GAIT 3.28StratfordWin (1pt)7.00£60.00-£915.00
17/10/20BOGOSS DE PERRET 4.03StratfordWin (1pt)13.00£120.00-£795.00
17/10/20DE BARLEY BASKET5.06Market RasenWin (0.5pt)15.00-£5.00-£800.00

Week 12 and profit of 11.5 points. Sadly not enough to turn my review around as I ended on a 68.5 point loss overall.

DateSelectionTimeCourseWin/EWOddsW/LTotal
18/10/20LORD TORRANAGA4.00SedgefieldE/W (0.5pt)13.00£75.00-£725.00
18/10/20ARTHURS GIFT 4.33SedgefieldWin (0.5pt)N/R£0.00-£725.00
18/10/20ROCCO5.10SedgefieldWin (1.5pt)11.00-£15.00-£740.00
19/10/20AIR HAIR LAIR3.10PlumptonWin (1pt)34.00-£10.00-£750.00
20/10/20CASPERS COURT1.10ExeterWin (1pt)5.00£40.00-£710.00
21/10/20THE RUSSIAN DOYEN3.10FontwellWin (1pt)7.00-£10.00-£720.00
21/10/20BENDY BOW4.23FontwellE/W (0.5pt)26.00-£10.00-£730.00
21/10/20INSPIREUS 4.55FontwellE/W (1pt)34.00-£20.00-£750.00
22/10/20SHANTUNG4.45LingfieldWin (1pt)9.00-£10.00-£760.00
22/10/20DESQUE DE L’ISLE 5.15LingfieldWin (2pt)6.50£110.00-£650.00
23/10/20WITH RESPECT4.00NewburyWin (0.5pt)7.00-£5.00-£655.00
23/10/20BRYON HILL4.30NewcastleWin (0.5pt)4.33-£5.00-£660.00
24/10/20I’D BETTER GO NOW 3.15CheltenhamWin (2pt)8.00-£20.00-£680.00
24/10/20MAYSONG 5.10DoncasterWin (0.5pt)8.00-£5.00-£685.00

Review Conclusion

It was nice to end with a profitable week but sadly that was my only winning week. With little to no chance of turning this review around I have ended it after 12 weeks on a total loss of 68.5 points.

Unfoortunately due to such a poor performance I will not be recommending this service.

>

BEST Betting System Review Updates - Straight to your Inbox!